Location: Haut-de-Bosdarros
(43.1833°N, 0.3167°W)
Time: 18:31:21
(UTC+00:00)

Daily predictions for brighter satellites

Satellite Brightness Start Highest point End
(mag) Time Altitude Azimuth Time Altitude Azimuth Time Altitude Azimuth
SL-27 R/B 4.0 19:44:33 10° SE 19:47:01 18° E 19:49:31 10° NE
CSL-04 Rocket 4.4 19:44:25 10° S 19:49:42 57° WSW 19:54:59 10° NNW
Cosmos 2333 Rocket 4.0 19:47:43 10° N 19:51:28 18° NE 19:55:11 10° E
BREEZE-M DEB (TANK) 2.3 19:49:06 10° WNW 19:51:44 65° NNE 19:57:40 10° ESE
Cosmos 2322 Rocket 2.5 19:48:39 10° NNW 19:54:10 52° ENE 19:59:36 10° SE
CZ-4 R/B 4.3 19:52:16 10° SW 19:55:01 17° W 19:57:47 10° NW
IRS-1A Rocket 4.4 19:50:30 10° SSE 19:55:52 58° ENE 20:01:17 10° N
BREEZE-M R/B 4.4 19:52:34 10° SSW 19:58:10 22° SSE 20:01:14 10° E
Cosmos 923 Rocket 4.0 19:53:22 10° SSW 19:58:41 76° ESE 20:04:02 10° NNE
OBJECT-B 1.5 19:56:08 10° S 19:59:16 54° W 20:02:26 10° NNW
SL-12 R/B (Aux Motor) 4.3 20:00:43 10° WNW 20:02:52 69° SSW 20:07:22 11° ESE
BREEZE-M DEB (TANK) 3.4 20:01:09 10° WNW 20:04:12 80° NNE 20:12:58 10° ESE
Cosmos 2219 Rocket 3.9 20:01:54 10° N 20:05:41 18° NE 20:09:27 10° E
SJ-6B 3.2 20:02:15 10° S 20:05:55 60° W 20:09:40 10° NNW
Meteor 2-15 4.4 20:00:01 10° N 20:06:07 82° E 20:12:10 10° S
Resurs 1-3 3.6 20:02:02 10° SSE 20:06:23 72° ENE 20:10:45 10° N
Atlas Centaur 2 4.1 20:07:31 10° SW 20:08:30 10° SSW 20:09:27 10° SSW
USA 276 4.1 20:06:34 10° W 20:09:03 21° SW 20:11:30 10° S
Cosmos 2056 Rocket 4.1 20:06:02 10° N 20:11:04 42° ENE 20:15:29 13° SE
ATLAS 5 CENTAUR R/B 4.0 20:07:23 10° NNW 20:11:25 21° NE 20:15:57 10° E
USA 186 3.8 20:11:01 10° SSW 20:13:18 23° W 20:15:28 10° NW
SPOT 1/Viking Rocket 4.3 20:14:27 12° SE 20:18:39 36° ENE 20:23:24 10° N
Cosmos 1092 Rocket 4.0 20:13:59 10° S 20:20:15 82° E 20:26:38 10° N
NOSS 2-1 (E) 2.7 20:17:24 10° SW 20:20:43 88° SE 20:24:03 10° NE
Cosmos 2026 Rocket 4.0 20:17:40 10° S 20:23:56 71° E 20:30:09 10° NNE
IGS 5A 3.4 20:23:13 12° SSE 20:27:02 68° ENE 20:31:10 10° N
CZ-2C R/B 4.5 20:23:35 10° NE 20:27:32 30° E 20:30:27 15° SSE
Meteor 2-15 Rocket 4.5 20:21:38 10° N 20:27:44 86° W 20:33:48 10° S
SL-16 R/B 2.5 20:22:06 10° NNW 20:27:44 68° WSW 20:33:20 10° SSE
GP-B 3.5 20:26:02 10° NNE 20:30:18 44° E 20:33:39 15° SSE
Cosmos 1680 Rocket 3.7 20:25:53 10° SSW 20:31:08 75° WNW 20:36:25 10° NNE
Meteor 1-26 Rocket 4.3 20:26:03 10° N 20:31:56 86° W 20:37:34 10° S
Cosmos 1151 Rocket 3.1 20:28:19 10° N 20:32:41 61° E 20:36:06 16° SSE
Cosmos 2112 Rocket 4.1 20:27:40 10° SSW 20:32:58 85° WNW 20:38:15 10° NNE
Lacrosse 5 3.3 20:33:37 17° ESE 20:33:37 17° ESE 20:36:22 10° E
Cosmos 1371 Rocket 4.1 20:28:04 10° NNW 20:33:27 72° ENE 20:37:42 16° SSE
NOSS 3-1 (C) 4.4 20:26:52 10° NNW 20:34:10 56° NE 20:40:55 17° ESE
Okean 3 Rocket 3.6 20:31:19 10° S 20:35:45 64° E 20:40:15 10° NNE
Cosmos 1271 Rocket 3.4 20:32:44 10° NNW 20:36:41 56° W 20:40:34 10° S
MetOp-B 4.2 20:36:35 16° SSE 20:40:48 63° ENE 20:46:07 10° N
ERS-2 2.4 20:38:56 10° N 20:42:34 71° WNW 20:46:10 10° SSW
COSMOS 2487 3.6 20:45:40 24° E 20:45:40 24° E 20:48:16 10° NE
Cosmos 2237 4.3 20:40:13 10° NNW 20:45:58 82° WSW 20:50:20 18° SSE
Cosmos 1515 Rocket 4.2 20:45:47 10° N 20:49:56 39° ENE 20:51:44 26° SE
COSMOS 2428 3.8 20:45:46 10° N 20:50:47 31° NE 20:53:52 19° ESE
COSMOS 2455 2.9 20:45:30 10° S 20:51:18 55° ESE 20:57:10 10° NE
GEOS 3 Rocket 4.4 20:46:19 10° NNE 20:51:22 53° NW 20:56:20 10° WSW
Terra 3.2 20:54:31 19° E 20:56:15 24° ENE 21:00:02 10° NNE
Ariane Rocket 4.0 20:52:03 10° S 20:56:51 43° W 21:01:41 10° NNW
Cosmos 1809 Rocket 4.4 20:51:04 10° S 20:57:14 86° E 21:03:23 10° N
Cosmos 292 Rocket 3.8 20:52:47 10° NNW 20:57:33 66° ENE 20:59:58 28° SE
Cosmos 1328 Rocket 3.5 20:54:34 10° N 20:59:02 89° ESE 21:01:43 23° S
Cosmos 2360 Rocket 2.2 20:55:22 10° NNW 21:01:01 81° WSW 21:04:37 23° SSE
Cosmos 1766 Rocket 4.0 20:58:01 10° SSW 21:02:21 62° W 21:06:41 10° N
SPOT 3 Rocket 3.7 20:59:52 17° S 21:03:54 72° WSW 21:09:08 10° NNW
Cosmos 972 Rocket 4.4 21:01:58 27° SSE 21:04:06 39° E 21:08:42 10° NNE
Cosmos 1174 3.0 21:03:23 10° NW 21:06:22 81° WSW 21:06:57 54° SSE
Resurs 01 Rocket 2.6 21:05:14 13° S 21:08:56 44° W 21:13:13 10° NNW
Cosmos 1624 Rocket 4.4 21:06:16 10° NNW 21:11:24 59° WSW 21:14:45 22° S
Cosmos 2266 Rocket 4.2 21:09:42 26° SSE 21:13:01 52° E 21:19:06 10° NNE
NOSS 3-1 (A) 4.4 21:05:39 10° NNW 21:13:02 59° NE 21:18:16 25° ESE
Meteor 2-6 Rocket 4.1 21:07:52 10° N 21:13:16 85° W 21:16:31 25° S
Cosmos 1420 Rocket 4.0 21:11:09 10° NNW 21:16:29 81° WSW 21:19:08 30° SSE
Cosmos 1812 3.2 21:13:33 10° NNW 21:17:21 58° W 21:19:06 29° SSW
Cosmos 1553 Rocket 4.0 21:12:19 10° N 21:18:25 78° W 21:22:39 21° S
Cosmos 1862 3.6 21:16:10 19° SSW 21:18:54 64° W 21:22:51 10° N
Meteor 2-21 Rocket 4.4 21:16:32 16° S 21:21:33 85° E 21:27:44 10° N
ERS-1 Rocket 3.1 21:20:14 37° SE 21:22:01 59° ENE 21:26:58 10° N
Cosmos 2228 Rocket 3.7 21:22:11 10° N 21:26:21 38° ENE 21:26:53 37° E
Cosmos 2297 Rocket 3.8 21:31:26 18° E 21:31:26 18° E 21:34:04 10° NE
Cosmos 2285 Rocket 4.2 21:24:21 10° NNW 21:30:35 59° ENE 21:33:03 36° SE
Cosmos 1805 Rocket 4.1 21:31:36 39° E 21:31:36 39° E 21:35:41 10° NNE
SPOT 5 2.6 21:31:58 51° SE 21:32:57 73° ENE 21:37:27 10° N
ARIANE 5 R/B 2.5 21:31:52 48° SSE 21:33:06 89° E 21:37:32 10° NNW
BREEZE-M DEB (TANK) 3.1 21:27:39 10° WNW 21:33:35 45° N 21:34:36 32° ENE
Cosmos 2315 Rocket 4.3 21:29:14 10° N 21:35:27 53° ENE 21:37:36 38° SE
Cosmos 2333 Rocket 2.1 21:30:48 10° NNW 21:36:29 86° WSW 21:38:33 41° SSE
Cosmos 2322 Rocket 4.0 21:33:27 10° NW 21:37:48 23° WSW 21:41:54 11° SSW
Cosmos 2237 Rocket 3.5 21:33:45 10° N 21:38:36 27° NE 21:40:34 23° E
Cosmos 2322 3.7 21:33:43 10° NNW 21:39:29 86° WSW 21:41:30 43° SSE
Cosmos 1500 Rocket 3.5 21:40:12 49° S 21:41:22 89° WNW 21:45:50 10° N
Cosmos 1452 Rocket 3.4 21:37:45 10° NNW 21:43:02 87° ENE 21:44:29 50° SSE
Cosmos 2227 Rocket 4.0 21:44:50 16° ENE 21:44:50 16° ENE 21:46:56 10° ENE
Cosmos 2219 Rocket 2.1 21:44:43 10° NNW 21:50:20 81° WSW 21:51:54 49° SSE
S3M 4.3 21:46:40 10° NNW 21:52:59 64° W 21:56:13 30° SSW
Sich 1 3.4 21:53:27 48° ENE 21:53:27 48° ENE 21:57:12 10° NNE
Spot 2 Rocket 4.2 21:54:15 31° SSW 21:56:13 47° W 22:01:10 10° NNW
ATLAS 5 CENTAUR R/B 2.3 21:51:05 10° NW 21:56:46 83° NE 21:58:39 49° SE
Cosmos 1331 Rocket 4.1 21:53:44 10° NNW 21:58:53 57° ENE 21:59:36 52° E
Meteor 1-27 Rocket 3.8 21:53:51 10° NNW 21:59:34 76° W 22:01:24 45° S
Cosmos 1110 Rocket 4.0 21:55:03 10° NNW 22:00:21 65° ENE 22:01:08 57° ESE
Cosmos 1743 Rocket 4.2 22:02:46 38° SW 22:04:03 52° WNW 22:08:23 10° N
Cosmos 1633 Rocket 4.3 22:10:51 30° ENE 22:10:51 30° ENE 22:13:38 10° NNE
SL-16 R/B 4.1 22:06:51 10° N 22:10:50 19° NE 22:12:56 16° ENE
Cosmos 494 Rocket 4.0 22:11:18 48° SW 22:12:42 75° WNW 22:17:51 10° NNE
Lacrosse 5 1.8 22:12:22 24° SW 22:15:28 83° NW 22:20:34 10° NE
IRIDIUM 104 4.3 22:13:29 10° N 22:18:43 79° W 22:19:25 66° SSW
APEX 4.4 22:17:44 38° SW 22:20:10 81° WNW 22:26:56 10° NNE
Cosmos 1666 Rocket 4.2 22:21:09 48° NE 22:21:09 48° NE 22:24:39 10° NNE
Nadezhda 2 Rocket 4.4 22:23:48 60° SSE 22:24:59 77° E 22:31:26 10° N
IRIDIUM 114 4.5 22:22:39 10° N 22:27:50 65° W 22:28:31 58° SW
Cosmos 1244 Rocket 4.3 22:30:49 66° SSE 22:31:42 80° E 22:37:57 10° N
Terra 2.7 22:33:23 39° WSW 22:33:46 39° W 22:38:15 10° NNW
Meteor 1-25 Rocket 4.3 22:33:38 59° SW 22:34:35 72° W 22:40:09 10° N
COSMOS 2428 3.3 22:29:49 10° NW 22:35:11 43° WSW 22:35:52 42° SW
CZ-4C R/B 4.2 22:29:42 10° NNW 22:35:56 32° NE 22:41:11 16° E
COBE Rocket 4.1 22:36:50 57° NE 22:36:50 57° NE 22:41:02 10° N
Cosmos 2084 Rocket 4.2 22:35:45 10° NW 22:38:56 47° WNW 22:38:56 47° WNW
CZ-3B R/B 2.5 22:32:21 10° NW 22:39:49 63° NNE 22:39:49 63° NNE
Meteor 2-4 Rocket 4.1 22:34:45 10° N 22:40:32 52° ENE 22:40:46 52° E
USA 229 DEB 4.4 22:36:17 10° NW 22:43:22 49° WSW 22:45:02 43° SSW
USA 229 4.3 22:36:23 10° NW 22:43:28 49° WSW 22:45:07 43° SSW
Cosmos 1862 Rocket 4.3 22:42:05 10° N 22:45:19 47° NNE 22:45:19 47° NNE
Cosmos 2219 3.3 22:48:18 64° E 22:48:18 64° E 22:53:32 10° NNE
Meteor 1-18 Rocket 4.1 22:43:19 10° N 22:49:08 89° E 22:49:18 85° SSE
USA 267 3.8 22:43:27 10° ENE 22:48:10 40° E 22:48:10 40° E
Spot 4 4.2 22:52:09 58° NE 22:52:09 58° NE 22:56:22 10° N
Cosmos 1707 Rocket 4.4 22:50:17 10° NNW 22:53:48 47° WNW 22:53:48 47° WNW
Cosmos 1302 Rocket 4.0 22:52:42 10° NNW 22:57:32 76° NNW 22:57:32 76° NNW
Meteor 1-19 Rocket 4.3 22:55:26 10° NNW 23:00:52 60° W 23:00:52 60° W
SL-08 R/B 4.3 23:00:49 76° SSW 23:01:20 84° W 23:07:30 10° N
Cosmos 1980 3.7 22:55:57 10° NNW 23:01:24 69° W 23:01:24 69° W
Cosmos 909 Rocket 4.1 23:02:47 69° SE 23:03:05 70° ESE 23:10:38 10° NE
NOSS 2-2 (D) 4.4 23:03:50 10° NW 23:09:26 81° SW 23:09:49 77° S
Cosmos 1269 Rocket 4.2 23:10:35 66° WNW 23:10:35 66° WNW 23:15:45 10° NNE
Cosmos 2297 Rocket 2.4 23:13:12 61° W 23:13:40 63° WNW 23:19:19 10° NNE
Meteor 2-17 Rocket 4.4 23:15:38 71° E 23:15:38 71° E 23:21:28 10° NNE
ALOS 2 3.6 23:23:09 44° N 23:23:09 44° N 23:26:13 10° N
Cosmos 2237 Rocket 2.7 23:17:26 10° NW 23:22:23 48° W 23:22:23 48° W
USA 234 4.3 23:18:04 15° E 23:23:04 42° NNE 23:29:09 10° NW
Cosmos 1709 Rocket 4.1 23:26:19 63° E 23:26:19 63° E 23:32:31 10° NNE
Cosmos 2227 Rocket 2.3 23:26:37 66° WNW 23:26:39 67° WNW 23:32:19 10° NNE
Meteor 1-13 Rocket 4.5 23:23:34 10° N 23:28:50 61° NE 23:28:50 61° NE
Cosmos 2263 Rocket 3.8 23:33:28 23° ENE 23:33:28 23° ENE 23:36:28 10° NE
Cosmos 1745 Rocket 4.1 23:35:14 65° W 23:35:35 67° W 23:41:54 10° N
ATLAS 5 CENTAUR R/B 4.2 23:36:54 10° WNW 23:40:09 19° W 23:40:09 19° W
Cosmos 1241 Rocket 4.4 23:44:35 82° WSW 23:44:48 85° WNW 23:51:22 10° NNE
Nadezhda 1 Rocket 4.4 23:44:59 10° NNW 23:51:08 51° W 23:51:16 51° W
Cosmos 44 4.0 23:46:55 10° NNW 23:51:25 52° NNE 23:51:25 52° NNE
Thor Agena Rocket 4.4 23:48:56 10° NNE 23:52:34 41° NE 23:52:34 41° NE
